View from above orbital plane
|
View from above satellite
|
Ground track
|
The orbit data is extracted from the following two-line orbital elements,
1 00082U 61004B 21023.54630762 -.00000113 00000-0 -39374-4 0 9999
2 00082 38.8561 103.4114 1174809 65.8319 306.0612 12.26048858834826
Epoch (UTC): | 23 January 2021 13:06:40 |
Eccentricity: | 0.1174809 |
inclination: | 38.8561° |
perigee height: | 633 km |
apogee height: | 2499 km |
right ascension of ascending node: | 103.4114° |
argument of perigee: | 65.8319° |
revolutions per day: | 12.26048858 |
mean anomaly at epoch: | 306.0612° |
orbit number at epoch: | 83482 |
The dashed part of the orbit path shows where the satellite is in the earth's shadow,
|
|